When you browse on this site, cookies collect data to enhance your experience and personalize the content and advertising you see.
Visit our Privacy Policy to learn more. By continuing to use the site, you agree to this use of cookies and data.
  • In Austria
  • List of Countries
  • For 7 days
  • Water Temperature
  • Satellite Maps
  • Weather Map
  • News
  • Weather Widgets
  • user-avatar
    Login

    Hourly Weather Solden

    Today, 19 March, Tuesday

    Time Temperature Precipitation Wind Pressure Humidity
    00:00 -15°C° 0 mm 2 mps 579 mmHg 77%
    01:00 -15°C° 0 mm 2 mps 579 mmHg 75%
    02:00 -15°C° 0 mm 2 mps 579 mmHg 75%
    03:00 -15°C° 0 mm 2 mps 579 mmHg 75%
    04:00 -15°C° 0 mm 2 mps 579 mmHg 74%
    05:00 -15°C° 0 mm 2 mps 579 mmHg 74%
    06:00 -15°C° 0 mm 2 mps 579 mmHg 74%
    07:00 -15°C° 0 mm 2 mps 579 mmHg 74%
    08:00 -12°C° 0 mm 2 mps 580 mmHg 68%
    09:00 -9°C° 0 mm 2 mps 582 mmHg 63%
    10:00 -6°C° 0 mm 2 mps 583 mmHg 57%
    11:00 -6°C° 0 mm 2 mps 583 mmHg 56%
    12:00 -5°C° 0 mm 2 mps 584 mmHg 54%
    13:00 -4°C° 0 mm 2 mps 584 mmHg 53%
    14:00 -4°C° 0 mm 2 mps 584 mmHg 54%
    15:00 -4°C° 0 mm 2 mps 584 mmHg 55%
    16:00 -4°C° 0 mm 2 mps 584 mmHg 56%
    17:00 -6°C° 0 mm 2 mps 583 mmHg 62%
    18:00 -8°C° 0 mm 2 mps 583 mmHg 69%
    19:00 -10°C° 0 mm 2 mps 582 mmHg 75%
    20:00 -12°C° 0 mm 2 mps 583 mmHg 76%
    21:00 -12°C° 0 mm 2 mps 583 mmHg 77%
    22:00 -13°C° 0 mm 2 mps 583 mmHg 79%
    23:00 -14°C° 0 mm 2 mps 583 mmHg 78%

    Tomorrow, 20 March, Wednesday

    Time Temperature Precipitation Wind Pressure Humidity
    00:00 -14°C° 0 mm 2 mps 583 mmHg 78%
    01:00 -14°C° 0 mm 2 mps 583 mmHg 77%
    02:00 -14°C° 0 mm 2 mps 583 mmHg 76%
    03:00 -14°C° 0 mm 2 mps 583 mmHg 76%
    04:00 -14°C° 0 mm 2 mps 583 mmHg 75%
    05:00 -14°C° 0 mm 2 mps 583 mmHg 72%
    06:00 -14°C° 0 mm 2 mps 584 mmHg 69%
    07:00 -14°C° 0 mm 2 mps 584 mmHg 66%
    08:00 -10°C° 0 mm 2 mps 586 mmHg 59%
    09:00 -6°C° 0 mm 1 mps 587 mmHg 51%
    10:00 -2°C° 0 mm 1 mps 588 mmHg 44%
    11:00 -1°C° 0 mm 1 mps 589 mmHg 44%
    12:00 0°C° 0 mm 1 mps 589 mmHg 44%
    13:00 +2°C° 0 mm 1 mps 590 mmHg 44%
    14:00 +2°C° 0 mm 1 mps 590 mmHg 45%
    15:00 +1°C° 0 mm 1 mps 589 mmHg 46%
    16:00 +1°C° 0 mm 1 mps 589 mmHg 47%
    17:00 -1°C° 0 mm 1 mps 588 mmHg 54%
    18:00 -4°C° 0 mm 1 mps 587 mmHg 61%
    19:00 -7°C° 0 mm 1 mps 586 mmHg 68%
    20:00 -8°C° 0 mm 1 mps 587 mmHg 68%
    21:00 -8°C° 0 mm 1 mps 587 mmHg 68%
    22:00 -9°C° 0 mm 1 mps 587 mmHg 68%
    23:00 -9°C° 0 mm 1 mps 587 mmHg 66%

    Day after tomorrow, 21 March, Thursday

    Time Temperature Precipitation Wind Pressure Humidity
    00:00 -9°C° 0 mm 1 mps 587 mmHg 64%
    01:00 -9°C° 0 mm 1 mps 587 mmHg 62%
    02:00 -9°C° 0 mm 1 mps 586 mmHg 61%
    03:00 -9°C° 0 mm 1 mps 586 mmHg 60%
    04:00 -9°C° 0 mm 1 mps 586 mmHg 59%
    05:00 -9°C° 0 mm 1 mps 586 mmHg 58%
    06:00 -8°C° 0 mm 1 mps 586 mmHg 56%
    07:00 -8°C° 0 mm 1 mps 587 mmHg 55%
    08:00 -4°C° 0 mm 1 mps 588 mmHg 51%
    09:00 -1°C° 0 mm 1 mps 589 mmHg 48%
    10:00 +1°C° 0 mm 0 mps 591 mmHg 44%
    11:00 +3°C° 0 mm 1 mps 591 mmHg 45%
    12:00 +4°C° 0 mm 1 mps 591 mmHg 46%
    13:00 +5°C° 0 mm 1 mps 591 mmHg 48%
    14:00 +5°C° 0 mm 1 mps 591 mmHg 47%
    15:00 +5°C° 0 mm 1 mps 591 mmHg 45%
    16:00 +5°C° 0 mm 1 mps 590 mmHg 44%
    17:00 +2°C° 0 mm 1 mps 589 mmHg 46%
    18:00 0°C° 0 mm 1 mps 588 mmHg 48%
    19:00 -3°C° 0 mm 1 mps 587 mmHg 51%
    20:00 -3°C° 0 mm 1 mps 587 mmHg 51%
    21:00 -3°C° 0 mm 1 mps 587 mmHg 51%
    22:00 -4°C° 0 mm 1 mps 588 mmHg 51%
    23:00 -4°C° 0 mm 1 mps 587 mmHg 50%

    22 March, Friday

    Time Temperature Precipitation Wind Pressure Humidity
    00:00 -4°C° 0 mm 1 mps 587 mmHg 50%
    01:00 -4°C° 0 mm 1 mps 587 mmHg 49%
    02:00 -4°C° 0 mm 1 mps 587 mmHg 49%
    03:00 -4°C° 0 mm 1 mps 587 mmHg 48%
    04:00 -4°C° 0 mm 1 mps 587 mmHg 48%
    05:00 -4°C° 0 mm 1 mps 587 mmHg 47%
    06:00 -4°C° 0 mm 1 mps 587 mmHg 46%
    07:00 -4°C° 0 mm 1 mps 587 mmHg 45%
    08:00 -1°C° 0 mm 1 mps 589 mmHg 45%
    09:00 +2°C° 0 mm 1 mps 590 mmHg 45%
    10:00 +4°C° 0 mm 0 mps 591 mmHg 46%
    11:00 +6°C° 0 mm 1 mps 591 mmHg 46%
    12:00 +7°C° 0 mm 1 mps 591 mmHg 46%
    13:00 +8°C° 0 mm 1 mps 591 mmHg 45%
    14:00 +8°C° 0 mm 1 mps 591 mmHg 46%
    15:00 +7°C° 0 mm 1 mps 591 mmHg 46%
    16:00 +7°C° 0 mm 1 mps 590 mmHg 46%
    17:00 +5°C° 0 mm 1 mps 589 mmHg 50%
    18:00 +2°C° 0 mm 1 mps 589 mmHg 54%
    19:00 -1°C° 0 mm 0 mps 588 mmHg 58%
    20:00 0°C° 0 mm 1 mps 588 mmHg 58%
    21:00 -1°C° 0 mm 1 mps 588 mmHg 58%
    22:00 -1°C° 0 mm 1 mps 588 mmHg 58%
    23:00 -1°C° 0 mm 1 mps 588 mmHg 57%

    23 March, Saturday

    Time Temperature Precipitation Wind Pressure Humidity
    00:00 -2°C° 0 mm 1 mps 587 mmHg 55%
    01:00 -2°C° 0 mm 1 mps 587 mmHg 54%
    02:00 -2°C° 0 mm 1 mps 587 mmHg 53%
    03:00 -2°C° 0 mm 1 mps 587 mmHg 52%
    04:00 -2°C° 0 mm 1 mps 587 mmHg 50%
    05:00 -2°C° 0 mm 1 mps 587 mmHg 50%
    06:00 -2°C° 0 mm 1 mps 587 mmHg 49%
    07:00 -2°C° 0 mm 1 mps 587 mmHg 48%
    08:00 +1°C° 0 mm 1 mps 588 mmHg 47%
    09:00 +4°C° 0 mm 1 mps 589 mmHg 46%
    10:00 +6°C° 0 mm 0 mps 590 mmHg 45%
    11:00 +7°C° 0 mm 0 mps 590 mmHg 44%
    12:00 +9°C° 0 mm 1 mps 591 mmHg 42%
    13:00 +10°C° 0 mm 1 mps 591 mmHg 41%
    14:00 +9°C° 0 mm 1 mps 590 mmHg 41%
    15:00 +9°C° 0 mm 1 mps 590 mmHg 42%
    16:00 +9°C° 0 mm 1 mps 589 mmHg 43%
    17:00 +6°C° 0 mm 1 mps 588 mmHg 48%
    18:00 +4°C° 0 mm 1 mps 587 mmHg 54%
    19:00 +1°C° 0 mm 1 mps 586 mmHg 59%
    20:00 +1°C° 0 mm 1 mps 586 mmHg 62%
    21:00 0°C° 0 mm 1 mps 586 mmHg 65%
    22:00 0°C° 0 mm 1 mps 586 mmHg 68%
    23:00 -1°C° 0 mm 1 mps 586 mmHg 69%

    24 March, Sunday

    Time Temperature Precipitation Wind Pressure Humidity
    00:00 -1°C° 0 mm 1 mps 586 mmHg 71%
    01:00 -1°C° 0 mm 1 mps 585 mmHg 72%
    02:00 -1°C° 0 mm 1 mps 585 mmHg 72%
    03:00 -2°C° 0 mm 1 mps 585 mmHg 73%
    04:00 -2°C° 0 mm 1 mps 585 mmHg 73%
    05:00 -2°C° 0 mm 1 mps 585 mmHg 71%
    06:00 -1°C° 0 mm 1 mps 585 mmHg 69%
    07:00 -1°C° 0 mm 1 mps 585 mmHg 68%
    08:00 +1°C° 0 mm 1 mps 586 mmHg 61%
    09:00 +3°C° 0 mm 0 mps 587 mmHg 55%
    10:00 +6°C° 0 mm 0 mps 588 mmHg 49%
    11:00 +7°C° 0 mm 0 mps 588 mmHg 47%
    12:00 +7°C° 0 mm 0 mps 589 mmHg 46%
    13:00 +8°C° 0 mm 0 mps 589 mmHg 44%
    14:00 +8°C° 0 mm 0 mps 588 mmHg 45%
    15:00 +7°C° 0 mm 0 mps 588 mmHg 47%
    16:00 +7°C° 0 mm 0 mps 587 mmHg 48%
    17:00 +6°C° 0 mm 1 mps 586 mmHg 55%
    18:00 +4°C° 0 mm 1 mps 586 mmHg 62%
    19:00 +2°C° 0 mm 1 mps 585 mmHg 70%
    20:00 +2°C° 0 mm 1 mps 585 mmHg 73%
    21:00 +1°C° 0 mm 1 mps 585 mmHg 75%
    22:00 -1°C° 0 mm 2 mps 585 mmHg 78%
    23:00 -2°C° 0 mm 2 mps 585 mmHg 79%
    Show more